Date String (YYYY-MM-DD hh:mm:ss) UTC,Instrument flags,Ambient pressure (hPa),Sample flow (lpm),Bypass flow (lpm),Sample temperature (°C),Ambient temperature (°C),ASC tube jacket temperature (°C),LED temperature (°C),Box temperature (°C),Sample RH (%),Span deviation,Mass concentration (μg/m³),Mass concentration (μg/m³),Mass concentration (μg/m³)
DateTimeUTC,F1_M11,P_M11,Q1_M11,Q2_M11,T1_M11,T2_M11,T3_M11,T4_M11,T5_M11,U1_M11,ZSPAN_M11,X2_M11,X0_M11,X1_M11
2022-12-06 14:00:00,,0819.1,5.01,0.00,21.6,21.5,00.0,30.3,23.5,12.9,0000.0,0000.58,0001.20,0000.34
2022-12-06 14:01:00,,0819.1,5.00,0.00,21.6,21.0,00.0,30.4,23.4,12.8,0000.0,0000.59,0001.23,0000.35
2022-12-06 14:02:00,,0819.1,5.00,0.00,21.5,20.7,00.0,30.4,23.3,12.9,0000.0,0000.60,0001.26,0000.35
2022-12-06 14:03:00,,0819.1,5.00,0.00,21.5,20.4,00.0,30.4,23.2,12.8,0000.0,0000.63,0001.54,0000.35
2022-12-06 14:04:00,,0819.2,5.00,0.00,21.5,20.2,00.0,30.4,23.2,12.7,0000.0,0000.63,0001.65,0000.36
2022-12-06 14:05:00,,0819.2,5.00,0.00,21.5,20.1,00.0,30.4,23.2,12.7,0000.0,0000.63,0001.66,0000.36
2022-12-06 14:06:00,,0819.2,5.00,0.00,21.4,20.1,00.0,30.4,23.1,12.8,0000.0,0000.62,0001.64,0000.35
2022-12-06 14:07:00,,0819.2,5.00,0.00,21.4,19.9,00.0,30.4,23.1,12.6,0000.0,0000.65,0001.66,0000.35
2022-12-06 14:08:00,,0819.3,5.00,0.00,21.4,19.9,00.0,30.4,23.1,12.5,0000.0,0000.64,0001.55,0000.35
2022-12-06 14:09:00,,0819.3,5.00,0.00,21.4,19.9,00.0,30.4,23.1,12.7,0000.0,0000.63,0001.53,0000.36
2022-12-06 14:10:00,,0819.3,5.00,0.00,21.4,19.9,00.0,30.4,23.1,12.6,0000.0,0000.65,0001.59,0000.36
2022-12-06 14:11:00,,0819.3,5.01,0.00,21.4,20.4,00.0,30.3,23.2,12.4,0000.0,0000.67,0001.63,0000.36
2022-12-06 14:12:00,,0819.3,4.98,0.00,21.5,21.5,00.0,30.3,23.4,12.4,0000.0,0000.67,0001.70,0000.35
2022-12-06 14:13:00,,0819.2,5.00,0.00,21.6,21.9,00.0,30.3,23.6,12.2,0000.0,0000.66,0001.70,0000.35
2022-12-06 14:14:00,,0819.3,4.99,0.00,21.6,21.5,00.0,30.4,23.6,12.1,0000.0,0000.65,0001.52,0000.35
2022-12-06 14:15:00,,0819.2,5.01,0.00,21.6,21.1,00.0,30.4,23.5,11.9,0000.0,0000.64,0001.35,0000.35
2022-12-06 14:16:00,,0819.2,5.00,0.00,21.6,20.9,00.0,30.5,23.4,11.9,0000.0,0000.64,0001.38,0000.35
2022-12-06 14:17:00,,0819.3,5.00,0.00,21.6,20.7,00.0,30.5,23.3,11.8,0000.0,0000.66,0001.40,0000.35
2022-12-06 14:18:00,,0819.3,5.00,0.00,21.6,20.5,00.0,30.5,23.3,11.8,0000.0,0000.62,0001.31,0000.34
2022-12-06 14:19:00,,0819.2,5.00,0.00,21.6,20.4,00.0,30.5,23.3,11.8,0000.0,0000.61,0001.31,0000.34
2022-12-06 14:20:00,,0819.2,5.00,0.00,21.6,20.3,00.0,30.5,23.2,11.9,0000.0,0000.60,0001.59,0000.34
2022-12-06 14:21:00,,0819.2,5.00,0.00,21.6,20.2,00.0,30.5,23.2,11.9,0000.0,0000.60,0001.82,0000.34
2022-12-06 14:22:00,,0819.2,5.00,0.00,21.5,20.1,00.0,30.5,23.2,11.9,0000.0,0000.59,0001.79,0000.34
2022-12-06 14:23:00,,0819.3,5.00,0.00,21.5,20.1,00.0,30.5,23.2,11.9,0000.0,0000.57,0001.68,0000.34
2022-12-06 14:24:00,,0819.3,5.00,0.00,21.5,20.1,00.0,30.5,23.2,11.9,0000.0,0000.56,0001.64,0000.34
2022-12-06 14:25:00,,0819.3,5.01,0.00,21.5,20.7,00.0,30.4,23.3,11.8,0000.0,0000.54,0001.59,0000.34
2022-12-06 14:26:00,,0819.4,5.00,0.00,21.7,21.8,00.0,30.4,23.6,11.8,0000.0,0000.55,0001.58,0000.34
2022-12-06 14:27:00,,0819.4,5.00,0.00,21.8,22.1,00.0,30.5,23.8,11.6,0000.0,0000.54,0001.54,0000.34
2022-12-06 14:28:00,,0819.4,4.99,0.00,21.8,21.6,00.0,30.5,23.7,11.4,0000.0,0000.53,0001.52,0000.35
2022-12-06 14:29:00,,0819.4,5.00,0.00,21.8,21.2,00.0,30.6,23.6,11.3,0000.0,0000.52,0001.48,0000.35
2022-12-06 14:30:00,,0819.5,5.01,0.00,21.7,20.9,00.0,30.6,23.5,11.2,0000.0,0000.53,0001.47,0000.35
2022-12-06 14:31:00,,0819.5,5.00,0.00,21.7,20.7,00.0,30.6,23.4,11.5,0000.0,0000.52,0001.11,0000.35
2022-12-06 14:32:00,,0819.5,5.00,0.00,21.7,20.5,00.0,30.6,23.4,11.5,0000.0,0000.49,0000.80,0000.35
2022-12-06 14:33:00,,0819.6,5.00,0.00,21.7,20.4,00.0,30.6,23.3,11.6,0000.0,0000.48,0000.79,0000.34
2022-12-06 14:34:00,,0819.6,5.00,0.00,21.7,20.3,00.0,30.6,23.4,11.8,0000.0,0000.48,0000.78,0000.34
2022-12-06 14:35:00,,0819.6,5.00,0.00,21.7,20.3,00.0,30.6,23.3,11.8,0000.0,0000.49,0000.82,0000.35
2022-12-06 14:36:00,,0819.6,5.00,0.00,21.6,20.2,00.0,30.6,23.3,11.8,0000.0,0000.51,0000.86,0000.35
2022-12-06 14:37:00,,0819.6,5.00,0.00,21.6,20.2,00.0,30.6,23.3,11.9,0000.0,0000.53,0000.87,0000.35
2022-12-06 14:38:00,,0819.6,5.01,0.00,21.6,20.5,00.0,30.6,23.4,11.8,0000.0,0000.54,0000.88,0000.35
2022-12-06 14:39:00,,0819.7,5.01,0.00,21.7,21.7,00.0,30.5,23.7,11.7,0000.0,0000.57,0000.98,0000.35
2022-12-06 14:40:00,,0819.8,4.99,0.00,21.9,22.4,00.0,30.6,23.9,11.7,0000.0,0000.60,0001.12,0000.36
2022-12-06 14:41:00,,0819.9,5.00,0.00,21.9,22.0,00.0,30.6,23.9,11.7,0000.0,0000.61,0001.16,0000.35
2022-12-06 14:42:00,,0819.8,5.00,0.00,21.9,21.6,00.0,30.7,23.8,11.7,0000.0,0000.61,0001.13,0000.35
2022-12-06 14:43:00,,0819.9,5.00,0.00,21.9,21.4,00.0,30.7,23.8,11.7,0000.0,0000.61,0001.14,0000.34
2022-12-06 14:44:00,,0819.9,5.00,0.00,21.9,21.2,00.0,30.8,23.7,11.7,0000.0,0000.63,0001.20,0000.34
2022-12-06 14:45:00,,0819.9,5.00,0.00,21.9,21.0,00.0,30.8,23.7,11.8,0000.0,0000.63,0001.22,0000.34
2022-12-06 14:46:00,,0820.0,5.00,0.00,21.9,20.9,00.0,30.8,23.7,12.5,0000.0,0000.63,0001.19,0000.34
2022-12-06 14:47:00,,0819.9,5.00,0.00,21.9,20.8,00.0,30.8,23.7,12.5,0000.0,0000.66,0001.24,0000.37
2022-12-06 14:48:00,,0819.9,5.00,0.00,21.9,20.8,00.0,30.8,23.7,12.5,0000.0,0000.69,0001.29,0000.39
2022-12-06 14:49:00,,0819.9,5.01,0.00,21.9,20.7,00.0,30.8,23.7,12.7,0000.0,0000.71,0001.43,0000.42
2022-12-06 14:50:00,,0819.9,5.00,0.00,21.9,20.7,00.0,30.8,23.7,12.5,0000.0,0000.73,0001.40,0000.45
2022-12-06 14:51:00,,0819.9,4.99,0.00,21.9,20.8,00.0,30.8,23.7,12.6,0000.0,0000.77,0001.43,0000.47
2022-12-06 14:52:00,,0819.9,4.99,0.00,21.9,20.7,00.0,30.8,23.7,13.2,0000.0,0000.82,0001.56,0000.50
2022-12-06 14:53:00,,0819.9,5.00,0.00,21.9,20.7,00.0,30.8,23.7,12.8,0000.0,0000.90,0002.30,0000.54
2022-12-06 14:54:00,,0819.9,5.01,0.00,21.9,20.7,00.0,30.8,23.7,13.0,0000.0,0000.97,0002.73,0000.58
2022-12-06 14:55:00,,0820.0,5.01,0.00,21.9,20.7,00.0,30.8,23.7,13.6,0000.0,0001.02,0002.98,0000.62
2022-12-06 14:56:00,,0819.9,5.00,0.00,21.9,20.8,00.0,30.8,23.7,13.4,0000.0,0001.08,0003.48,0000.66
2022-12-06 14:57:00,,0820.0,5.00,0.00,21.9,20.8,00.0,30.8,23.7,13.1,0000.0,0001.08,0003.50,0000.67
2022-12-06 14:58:00,,0820.0,5.00,0.00,21.9,20.8,00.0,30.8,23.7,13.4,0000.0,0001.08,0003.47,0000.68
2022-12-06 14:59:00,,0820.0,4.99,0.00,21.9,20.8,00.0,30.8,23.7,13.3,0000.0,0001.10,0003.60,0000.69
